Location: Cabo di Oristano
(39.8500°N, 8.4333°E)
Time: 16:33:18
(UTC+00:00)

Meteor 2-21 Rocket - Pass Details

Date: 31 January 2023
Orbit: 936 x 967 km, 82.6° (Epoch: 31 March)

Event Time Altitude Azimuth Distance (km) Brightness Sun altitude
Rises 04:18:21 0° 188° (S) 3,599 7.4 -26.5°
Reaches altitude 10° 04:20:50 10° 189° (S) 2,654 6.7 -26.0°
Maximum altitude 04:26:54 82° 277° (W) 953 4.3 -24.9°
Drops below altitude 10° 04:32:59 10° 6° (N) 2,657 6.8 -23.7°
Sets 04:35:29 0° 7° (N) 3,604 7.5 -23.2°
